Tracking 18840 objects as of 17-November-2017
HD Live streaming from Space Station
objects crossing your sky now

FENGYUN 1C DEB

Track FENGYUN 1C DEB now!
10-day predictions


NORAD ID: 31336
Int'l Code: 1999-025BQQ
Perigee: 714.7 km
Apogee: 856.9 km
Inclination: 98.8 °
Period: 100.4 minutes
Semi major axis: 7156 km
RCS: 0.0019 m2 (small)
Launch date: May 10, 1999
Source: People's Republic of China (PRC)
Launch site: Taiyaun Space Center, China (TSC)

Note: This is SATELLITE DEBRIS
aabbcc
Your satellite tracking list
Your tracking list is empty




NASA's NSSDC Master Catalog

Two Line Element Set (TLE):
1 31336U 99025BQQ 17320.23867192 +.00000196 +00000-0 +82724-4 0  9995
2 31336 098.7903 326.3734 0099341 201.7521 217.5144 14.33905418554990
Source of the keplerian elements: AFSPC